RH
38 38 39 38 39 44 45 46 52 54 45 45 42 45 46 45 46 47 57 55 65 66 65 70 68 56 51 48 54 67 90 90
37 41 41 43 45 46 47 50 52 48 44 47 47 51 50 49 47 55 58 58 65 65 64 70 73 67 57 56 54 59 73 89
40 42 44 48 48 49 47 47 50 47 46 48 52 53 53 51 48 50 56 64 71 67 70 66 74 74 71 67 64 59 54 81
41 44 48 47 48 50 48 49 49 51 57 49 49 49 49 49 50 53 57 62 67 75 77 78 78 74 76 74 68 68 78 56
42 44 48 47 48 50 49 51 50 49 58 58 62 58 61 57 57 57 54 60 68 76 81 81 85 85 85 77 70 73 66 75
45 46 48 45 46 49 51 52 51 55 57 59 62 64 60 59 61 66 61 64 73 78 82 85 87 88 90 89 88 85 67 57
46 44 45 46 46 51 52 55 51 56 57 59 67 68 69 69 69 69 67 72 78 80 82 85 86 87 89 87 86 89 85 67
47 44 42 48 53 54 54 56 53 56 62 61 64 65 68 72 75 75 76 81 84 84 84 87 87 86 88 88 92 91 88 76
51 48 48 54 58 56 59 60 56 56 65 65 64 66 69 69 72 76 84 89 92 87 86 85 84 86 87 87 92 92 88 82
56 51 57 62 62 62 69 67 66 60 67 68 70 68 70 73 72 76 90 84 88 89 85 85 83 85 84 86 90 93 92 94
61 59 68 65 76 63 69 74 89 65 62 70 72 72 72 73 72 79 79 79 81 83 86 84 82 82 80 84 89 90 92 92
95 77 79 89 96 64 68 82 100 96 74 71 73 77 77 75 79 83 86 80 82 88 82 86 90 84 83 85 91 91 91 92
99 100 94 100 83 85 80 81 72 98 98 90 88 93 98 85 93 89 97 96 90 92 88 93 92 90 91 90 92 94 93 92
99 96 94 95 87 90 87 90 81 82 82 90 90 93 100 99 100 100 100 98 97 95 92 92 95 95 94 95 96 93 91 92
67 90 90 92 95 89 85 88 85 71 74 54 81 88 64 70 99 92 90 92 92 92 93 94 91 91 92 91 94 96 95 95
44 42 48 67 77 59 50 45 48 53 69 57 52 51 61 46 50 56 59 49 63 83 84 90 92 92 93 92 88 94 94 94
39 36 37 36 38 39 42 42 40 35 36 39 45 43 42 49 43 44 43 40 40 44 45 51 88 84 72 70 76 86 91 85
44 45 46 42 39 38 37 36 37 38 37 36 36 38 39 42 40 38 40 42 40 41 40 38 46 59 60 57 54 55 67 78
52 77 61 52 42 41 41 38 40 41 41 38 36 37 38 40 39 40 41 39 41 42 44 41 39 48 62 49 46 36 48 56
Wind_Speed
4 6 7 8 9 10 10 10 12 14 9 10 9 9 10 10 10 11 14 12 13 13 12 12 14 13 12 13 15 11 10 11
3 5 6 7 8 9 10 11 12 11 10 11 11 11 11 11 11 14 15 13 15 14 11 11 12 14 14 15 15 16 11 11
2 4 5 7 8 9 10 12 12 11 10 10 10 11 10 11 11 13 15 15 16 13 12 13 12 11 14 17 16 13 14 10
2 4 5 7 8 9 10 12 12 12 13 9 10 10 9 9 11 11 13 16 16 15 15 14 14 12 10 13 16 16 12 13
3 4 5 7 9 8 10 11 11 11 13 12 15 11 12 11 11 12 14 16 16 16 15 14 13 10 12 12 11 15 13 15
4 5 5 6 8 9 9 10 11 13 12 13 11 13 11 11 11 15 15 15 16 16 15 15 13 10 11 13 12 12 15 15
3 3 4 6 8 8 8 10 11 12 13 14 14 15 14 12 14 12 12 11 10 14 16 14 13 12 12 12 13 15 14 18
4 4 6 7 8 9 8 10 11 12 13 14 15 15 14 14 14 12 15 12 11 13 15 14 11 13 13 13 13 14 14 17
4 4 6 7 7 8 9 10 11 12 12 14 13 14 10 10 13 13 11 11 11 15 14 14 14 13 12 11 7 9 14 16
2 3 6 5 6 7 8 10 11 12 11 11 12 13 14 13 15 14 10 13 11 13 13 13 13 15 15 13 10 13 15 4
3 3 4 6 6 6 8 10 9 11 11 10 10 12 13 13 13 16 16 15 17 16 15 15 15 17 18 18 15 17 14 10
3 2 4 4 3 6 8 7 8 9 10 10 11 12 12 13 14 15 16 18 19 18 18 17 16 20 20 17 20 21 20 16
3 3 3 3 5 5 7 8 8 7 7 9 9 10 9 14 14 16 15 16 18 19 19 18 17 18 18 20 21 23 18 21
5 4 3 3 4 5 7 7 7 7 7 9 9 10 8 11 12 11 13 15 17 18 18 19 17 17 18 21 19 18 20 21
8 5 4 4 4 4 6 7 6 7 7 8 9 11 11 11 8 10 10 13 14 17 17 16 18 19 20 21 20 17 19 18
10 8 8 7 5 5 6 6 7 6 7 9 10 10 11 12 13 13 13 15 15 13 15 17 18 19 16 18 19 18 18 19
11 8 7 7 7 7 7 6 7 7 8 10 9 11 11 12 13 14 14 16 17 17 19 20 19 14 28 28 21 17 18 18
12 10 7 7 7 6 7 7 7 7 8 10 10 10 11 12 12 13 15 16 16 18 19 20 22 19 28 26 24 17 17 18
12 9 8 8 8 8 8 7 8 8 9 10 10 9 10 11 12 13 14 14 16 16 18 19 20 19 26 21 19 17 17 19
Wind_Direction
28 9 8 357 0 352 347 348 347 340 335 334 328 325 327 320 320 313 317 308 301 298 292 284 288 278 269 263 263 260 273 247
37 17 11 356 5 357 355 351 354 349 348 342 339 332 327 321 319 320 313 309 304 295 289 286 282 282 279 275 271 258 259 275
63 23 12 8 5 4 359 3 360 357 350 334 329 322 317 316 308 319 327 323 312 301 293 288 282 284 282 278 271 270 256 241
63 29 23 8 10 8 3 4 360 4 351 335 332 323 323 327 330 326 319 312 315 314 310 302 288 278 270 279 284 251 278 266
58 23 22 14 12 10 5 3 5 2 358 344 344 337 334 330 329 323 321 329 325 317 315 315 318 309 280 264 259 275 249 257
56 35 21 19 15 12 3 1 12 11 358 357 348 344 338 332 336 326 331 331 329 322 319 312 301 289 276 277 283 255 265 252
86 64 37 30 21 13 6 3 14 11 4 6 360 353 344 344 344 337 339 334 327 330 324 311 306 296 286 271 264 260 241 253
82 43 29 21 11 10 8 5 8 13 8 9 7 0 353 354 350 343 341 341 338 337 332 326 322 314 301 289 273 254 236 239
87 42 29 22 5 10 11 3 9 14 8 11 10 8 4 1 357 352 343 344 338 341 342 335 339 337 327 311 306 311 232 241
102 54 33 17 11 17 17 13 13 13 13 12 14 14 17 10 8 2 352 352 345 358 355 350 358 359 4 10 13 4 340 347
119 61 32 20 8 19 33 23 17 12 22 18 18 17 20 17 16 17 11 6 2 7 8 11 13 17 23 29 26 22 19 20
167 107 62 28 28 32 43 39 30 24 20 26 25 23 20 24 21 16 13 14 10 13 16 16 22 29 27 28 40 35 31 28
183 134 87 64 56 37 47 36 38 24 28 30 24 30 18 33 20 20 13 16 16 17 15 21 24 30 27 32 35 38 31 33
177 149 109 82 66 57 53 43 32 35 36 37 27 24 29 35 20 21 25 22 23 22 17 19 24 28 31 39 36 34 39 35
171 153 131 105 83 73 71 66 39 48 36 37 43 30 26 40 39 23 38 38 31 31 26 20 28 29 31 38 32 30 37 37
177 166 150 141 126 104 81 78 85 72 62 40 31 44 30 38 37 37 38 40 45 40 39 32 32 34 30 39 42 32 34 43
172 164 150 132 117 103 97 80 66 61 55 59 38 35 36 33 37 42 38 42 37 42 41 41 36 33 36 45 45 39 38 37
168 162 150 131 118 117 102 95 88 73 62 58 51 39 37 37 36 39 43 41 41 39 41 43 42 36 31 37 42 48 47 41
159 152 147 142 131 119 115 103 92 81 69 59 53 50 45 44 40 42 42 42 43 42 38 40 41 38 30 35 41 51 48 47